Regional Weather Roundup
Issued by NWS Little Rock, AR

Home | Current Version | Previous Version | Text Only | Print | Product List | Glossary On
Versions: 1 2 3 4 5 6 7 8 9 10 11 12 13 14 15 16 17 18 19 20 21 22 23 24 25 26 27 28 29 30 31 32 33 34 35 36 37 38 39 40 41 42 43 44 45 46 47 48 49 50
000
ASUS44 KLZK 262205
RWRLZK

WEATHER ROUNDUP FOR ARKANSAS
NATIONAL WEATHER SERVICE LITTLE ROCK AR
500 PM CDT TUE SEP 26 2017

NOTE: "FAIR" INDICATES FEW OR NO CLOUDS BELOW 12,000 FEET WITH NO
SIGNIFICANT WEATHER AND/OR OBSTRUCTIONS TO VISIBILITY.

ARZ001-003-010-029-262300-
NORTHWEST ARKANSAS

CITY           SKY/WX    TMP DP  RH WIND       PRES   REMARKS
FAYETTEVILLE   CLOUDY    80  69  69 N9        29.97F
FORT SMITH     SUNNY     90  62  39 E7        29.90F HX  90
HARRISON       PTSUNNY   86  57  37 NE3       29.97F HX  85
BENTONVILLE    CLOUDY    74  70  87 N10       30.01S
ROGERS         CLOUDY    77  68  73 N9        30.00S
SILOAM SPGS    CLOUDY    77  69  76 NW8       29.99S
HIGHFILL       CLOUDY    77  68  73 NW10      29.99S
SPRINGDALE     CLOUDY    79  66  65 NW9       30.00S
$$

ARZ004-005-016-262300-
NORTH CENTRAL ARKANSAS

CITY           SKY/WX    TMP DP  RH WIND       PRES   REMARKS
BATESVILLE     SUNNY     89  64  43 E6        29.94S HX  90
FLIPPIN        SUNNY     90  60  36 E6        29.94F HX  89
MTN HOME       SUNNY     89  58  34 CALM      29.94F HX  88
$$

ARZ040-041-262300-
WEST CENTRAL ARKANSAS

CITY           SKY/WX    TMP DP  RH WIND       PRES   REMARKS
MENA           MOSUNNY   88  61  40 CALM      29.93  HX  88
MOUNT IDA      SUNNY     90  57  32 VRB6      29.91S HX  88
$$

ARZ009-017-025-026-028-262300-
NORTHEAST ARKANSAS

CITY           SKY/WX    TMP DP  RH WIND       PRES   REMARKS
JONESBORO      MOSUNNY   89  67  47 VRB3      29.92F HX  92
NEWPORT        SUNNY     90  63  40 SE5       29.93S HX  91
WALNUT RIDGE   SUNNY     89  65  44 CALM      29.93S HX  91
BLYTHEVILLE    MOSUNNY   89  65  44 SE3       29.93F HX  91
NW BLYTHEVILLE MOSUNNY   90  64  43 CALM      29.93S HX  91
$$

ARZ022-023-033-042-044-262300-
CENTRAL ARKANSAS

CITY           SKY/WX    TMP DP  RH WIND       PRES   REMARKS
LITTLE ROCK    MOSUNNY   88  65  46 E7        29.92S HX  90
N LITTLE ROCK    N/A     89  66  46 E6        29.92F HX  91
JACKSONVILLE   SUNNY     92  64  39 E9        29.91F HX  93
SEARCY         MOSUNNY   91  66  43 SE5       29.94S HX  93
HOT SPRINGS    CLOUDY    90  63  40 NE7       29.92S HX  91
RUSSELLVILLE   SUNNY     90  59  35 VRB3      29.91F HX  89
CLINTON        FAIR      90  61  37 CALM      29.93F HX  89
$$

ARZ036-262300-
EAST ARKANSAS

CITY           SKY/WX    TMP DP  RH WIND       PRES   REMARKS
WEST MEMPHIS   CLOUDY    90  66  45 NE6       29.91F HX  92
$$

ARZ050-053-066-070-073-262300-
SOUTHWEST ARKANSAS

CITY           SKY/WX    TMP DP  RH WIND       PRES   REMARKS
ARKADELPHIA    FAIR      90  66  45 CALM      29.90F HX  92
CAMDEN         SUNNY     91  64  40 CALM      29.89F HX  93
TEXARKANA      SUNNY     88  63  43 NE6       29.90S HX  89
EL DORADO      SUNNY     88  66  48 NE5       29.90F HX  90
DE QUEEN       SUNNY     90  64  42 S5        29.87F HX  91
$$

ARZ056-057-069-262300-
SOUTHEAST ARKANSAS

CITY           SKY/WX    TMP DP  RH WIND       PRES   REMARKS
PINE BLUFF     CLOUDY    86  66  51 CALM      29.92S HX  88
STUTTGART      MOSUNNY   86  67  52 E6        29.92F HX  89
MONTICELLO     CLOUDY    87  69  54 N5        29.91F HX  91

$$





USA.gov is the U.S. government's official web portal to all federal, state and local government web resources and services.